Kahului, HI

3:30 AM HST on February 14, 2016 (GMT -1000)
Kahului

Weather History for PHOG - June, 2014

Change the Weather History Date:

Friday, June 20, 2014

  Actual Average Record
Temperature  
Mean Temperature 78 °F 78 °F  
Max Temperature 86 °F 87 °F 93 °F (1951)
Min Temperature 70 °F 70 °F 61 °F (1975)
Degree Days  
Heating Degree Days 0 0  
Month to date heating degree days 0 0  
Since 1 June heating degree days 0 0  
Since 1 July heating degree days 0 0  
Cooling Degree Days 13 13  
Month to date cooling degree days 282 254  
Year to date cooling degree days 1778 1513  
Since 1 June cooling degree days 282 254  
Growing Degree Days 27 (Base 50)    
Moisture  
Dew Point 65 °F    
Average Humidity 68    
Maximum Humidity 84    
Minimum Humidity 51    
Precipitation  
Precipitation T in 0.00 in 0.08 in (1994)
Month to date precipitation 0.03 0.12  
Year to date precipitation 13.99 9.62  
Snow  
Snow 0.00 in - - ()
Month to date snowfall 0.0  
Since 1 June snowfall 0.0  
Since 1 July snowfall 0.0  
Snow Depth 0.00 in    
Sea Level Pressure  
Sea Level Pressure 30.08 in    
Wind  
Wind Speed 10 mph (NNE)    
Max Wind Speed 21 mph    
Max Gust Speed 28 mph    
Visibility 10 miles    
Events      
T = Trace of Precipitation, MM = Missing Value Source: NWS Daily Summary

Daily Weather History Graph

Daily Weather History Graph

Search for Another Location

Airport or City:

Trip Planner

Search our weather history database for the weather conditions in past years. The results will help you decide how hot, cold, wet, or windy it might be!

Date:

Astronomy

Jun. 20, 2014 Rise Set
Actual Time 5:45 AM HST 7:09 PM HST
Civil Twilight 5:20 AM HST 7:34 PM HST
Nautical Twilight 4:50 AM HST 8:03 PM HST
Astronomical Twilight 4:20 AM HST 8:34 PM HST
Moon 12:50 AM HST (6/20) 1:31 PM HST (6/20)
Length of Visible Light 14h 13m
Length of Day
13h 24m
Last Quarter, 38% of the Moon is Illuminated
Jun 20
Last Quarter
Jun 26
New
Jul 5
First Quarter
Jul 12
Full
Jul 18
Last Quarter

Hourly Weather History & Observations

Time (HST) Temp. Heat Index Dew Point Humidity Pressure Visibility Wind Dir Wind Speed Gust Speed Precip Events Conditions
12:54 AM 71.1 °F - 64.0 °F 78% 30.09 in 10.0 mi ENE 10.4 mph - N/A   Mostly Cloudy
1:54 AM 72.0 °F - 64.0 °F 76% 30.09 in 10.0 mi Calm Calm - 0.00 in   Overcast
2:54 AM 72.0 °F - 63.0 °F 73% 30.08 in 10.0 mi Calm Calm - N/A   Overcast
3:54 AM 72.0 °F - 66.0 °F 81% 30.08 in 10.0 mi North 11.5 mph - N/A   Mostly Cloudy
4:54 AM 71.1 °F - 64.0 °F 78% 30.08 in 10.0 mi NE 5.8 mph - N/A   Mostly Cloudy
5:54 AM 70.0 °F - 64.9 °F 84% 30.09 in 10.0 mi NNE 5.8 mph - N/A   Partly Cloudy
6:54 AM 75.0 °F - 64.9 °F 71% 30.11 in 10.0 mi NNE 3.5 mph - N/A   Smoke
7:54 AM 78.1 °F - 64.0 °F 62% 30.12 in 10.0 mi North 8.1 mph - N/A   Partly Cloudy
8:54 AM 81.0 °F 82.2 °F 63.0 °F 54% 30.12 in 10.0 mi NNE 12.7 mph - N/A   Partly Cloudy
9:54 AM 82.0 °F 83.4 °F 64.0 °F 54% 30.11 in 10.0 mi NNE 13.8 mph - N/A   Partly Cloudy
10:54 AM 84.0 °F 85.8 °F 64.9 °F 53% 30.09 in 10.0 mi North 13.8 mph - N/A   Scattered Clouds
11:54 AM 82.9 °F 84.4 °F 64.0 °F 53% 30.08 in 10.0 mi NNE 15.0 mph - N/A   Scattered Clouds
12:54 PM 84.0 °F 85.8 °F 64.9 °F 53% 30.07 in 10.0 mi NE 17.3 mph - N/A   Partly Cloudy
1:54 PM 82.0 °F 84.1 °F 66.0 °F 58% 30.07 in 10.0 mi NNE 19.6 mph - N/A   Scattered Clouds
2:54 PM 84.0 °F 85.8 °F 64.9 °F 53% 30.06 in 10.0 mi NNE 18.4 mph - N/A   Scattered Clouds
3:54 PM 82.9 °F 85.0 °F 66.0 °F 56% 30.04 in 10.0 mi NNE 18.4 mph - N/A   Scattered Clouds
4:54 PM 81.0 °F 83.0 °F 66.0 °F 60% 30.04 in 10.0 mi NE 17.3 mph - N/A   Scattered Clouds
5:54 PM 81.0 °F 82.7 °F 64.9 °F 58% 30.05 in 10.0 mi NE 18.4 mph - N/A   Scattered Clouds
6:54 PM 77.0 °F - 64.0 °F 64% 30.06 in 10.0 mi NNE 15.0 mph - N/A   Partly Cloudy
7:54 PM 75.9 °F - 64.9 °F 69% 30.07 in 10.0 mi NE 8.1 mph - N/A   Partly Cloudy
8:54 PM 75.0 °F - 64.0 °F 69% 30.07 in 10.0 mi NE 5.8 mph - N/A   Partly Cloudy
9:54 PM 75.9 °F - 64.9 °F 69% 30.09 in 10.0 mi NNE 8.1 mph - N/A   Mostly Cloudy
10:54 PM 73.0 °F - 63.0 °F 71% 30.09 in 10.0 mi NE 5.8 mph - N/A   Clear
11:54 PM 73.9 °F - 64.0 °F 71% 30.07 in 10.0 mi NNE 9.2 mph - N/A   Overcast